Index of /services/bredewiki/download

[ICO]NameLast modifiedSizeDescription

[PARENTDIR]Parent Directory  -  
[   ]bredewiki-20090213-pages-articles.xml.bz22012-04-30 14:41 37K 
[   ]bredewiki-20090216-pages-articles.xml.bz22012-04-30 14:41 39K 
[   ]bredewiki-20090218-pages-articles.xml.bz22012-04-30 14:41 42K 
[   ]bredewiki-20090318-pages-articles.xml.bz22012-04-30 14:41 61K 
[   ]bredewiki-20090407-pages-articles.xml.bz22012-04-30 14:41 79K 
[   ]bredewiki-20090424-pages-articles.xml.bz22012-04-30 14:41 86K 
[   ]bredewiki-20090525-pages-articles.xml.bz22012-04-30 14:41 102K 
[   ]bredewiki-20090713-pages-articles.xml.bz22012-04-30 14:41 139K 
[   ]bredewiki-20090925-pages-articles.xml.bz22012-04-30 14:41 187K 
[   ]bredewiki-20100331-pages-articles.xml.bz22012-04-30 14:41 332K 
[   ]bredewiki-20100420-pages-articles.xml.bz22012-04-30 14:41 370K 
[   ]bredewiki-20110721-pages-articles.xml.bz22012-04-30 14:41 724K 
[   ]bredewiki-20110721.skos2012-04-30 14:41 329K 
[   ]bredewiki-20111117-pages-articles.xml.bz22012-04-30 14:41 775K 
[   ]bredewiki-20111124-pages-articles.xml.bz22012-04-30 14:41 787K 
[   ]bredewiki-20120509-pages-articles.xml.bz22012-05-09 15:35 932K 
[   ]bredewiki-20121123-pages-articles.xml.bz22012-11-23 10:28 1.0M 
[   ]bredewiki-20130405-pages-articles.xml.bz22013-04-05 23:59 1.1M 
[   ]bredewiki-20130415-pages-articles.xml.bz22013-04-15 17:07 1.1M 
[   ]bredewiki-20131108-pages-articles.xml.bz22013-11-08 19:56 1.2M 
[   ]bredewiki-20140806-pages-articles.xml.bz22014-08-06 13:45 1.3M 
[   ]bredewiki-20140806-templates.sqlite32014-08-06 13:46 18M 
[   ]bredewiki-20150313-pages-articles.xml.bz22015-03-13 14:48 1.4M 
[   ]bredewiki-20150313-templates.sqlite32015-03-13 14:49 18M 
[   ]bredewiki-pages-articles.xml.bz22015-03-13 14:48 1.4M 
[   ]bredewiki-templates.sql2015-03-13 14:48 27M 
[   ]bredewiki-templates.sqlite32015-03-13 14:49 18M 
[   ]bredewiki.skos2012-04-30 14:41 329K 
[   ]empty2016-09-02 11:29 0  

Apache/2.4.7 (Ubuntu) Server at neuro.imm.dtu.dk Port 80